Regional Weather Roundup
Issued by NWS

Home | Current Version | Previous Version | Graphics & Text | Print | Product List | Glossary On
Versions: 1 2 3 4 5 6 7 8 9 10 11 12 13 14 15 16 17 18 19 20 21 22 23 24 25 26 27 28 29 30 31 32 33 34 35 36 37 38 39 40 41 42 43 44 45 46 47 48 49 50
958
ASUS44 KLIX 301501
RWRLA
LOUISIANA WEATHER ROUNDUP
NATIONAL WEATHER SERVICE NEW ORLEANS LA
900 AM CST FRI JAN 30 2015

NOTE: "FAIR" INDICATES FEW OR NO CLOUDS BELOW 12,000 FEET WITH NO
      SIGNIFICANT WEATHER AND/OR OBSTRUCTIONS TO VISIBILITY.
      SKY/WX - SKY CONDITION AND SIGNIFICANT WEATHER.
      TMP - AIR TEMPERATURE.    DP   - DEWPOINT TEMPERATURE.
      RH  - RELATIVE HUMIDITY.  PRES - PRESSURE.
      HX  - HEAT INDEX.         WCI  - WIND CHILL INDEX.

*  THESE STATIONS ARE NOT NWS OR FAA STATIONS AND ARE NOT UNDER
   NWS QUALITY CONTROL.

LAZ040-048-061>063-065-066-069-301600-
SOUTHEAST LOUISIANA

CITY           SKY/WX    TMP DP  RH WIND       PRES   REMARKS
N.O. AUDUBON     N/A     54  41  62 MISG        N/A
N.O. INTL ARPT PTSUNNY   50  39  66 NE20      30.40R
N.O. LAKEFRONT SUNNY     51  40  65 N20       30.40R
N.O. DOWNTOWN* NOT AVBL
SLIDELL        MOSUNNY   49  37  63 N14G24    30.39R
BATON ROUGE    MOSUNNY   47  33  58 NE16G22   30.42R
BOOTHVILLE     SUNNY     54  46  74 N12G20    30.36R
BELLE CHASSE   PTSUNNY   51  38  60 N14G20    30.38R
BOGALUSA*        N/A     47  36  65 NE14      30.43R
GALLIANO*      NOT AVBL
NEW ROADS*     NOT AVBL
GONZALES*      NOT AVBL
HAMMOND*       NOT AVBL
HOUMA*         SUNNY     50  41  71 N17       30.38R
PORT FOURCHON* SUNNY     55  45  67 NE17G23   30.38R

$$

LAZ041-044-053-054-301600-
SOUTHWEST LOUISIANA

CITY           SKY/WX    TMP DP  RH WIND       PRES   REMARKS
LAKE CHARLES   MOSUNNY   48  35  60 NE21      30.42R
LAFAYETTE      MOSUNNY   46  36  68 NE17      30.41R
PATTERSON      SUNNY     50  39  66 NE18      30.39R
SALT POINT       N/A     51  40  65 MISG      30.36R
NEW IBERIA     MOSUNNY   49  36  61 NE18      30.41R
CHENAULT AIRPK NOT AVBL

$$

LAZ027-028-301600-
CENTRAL LOUISIANA

CITY           SKY/WX    TMP DP  RH WIND       PRES   REMARKS
FORT POLK      MOSUNNY   43  32  63 NE12G25   30.43S
ALEXANDRIA INT MOSUNNY   44  32  62 NE13      30.45S
ALEXANDRIA     MOSUNNY   44  31  60 NE8       30.47R

$$

LAZ001-002-301600-
NORTHWEST LOUISIANA

CITY           SKY/WX    TMP DP  RH WIND       PRES   REMARKS
SHREVEPORT     PTSUNNY   44  30  57 NE13      30.51R
BARKSDALE AFB  SUNNY     41  30  63 NE9       30.51R
DTN SHREVEPORT SUNNY     41  29  62 NE10      30.52R

$$

LAZ014-016-301600-
NORTHEAST LOUISIANA

CITY           SKY/WX    TMP DP  RH WIND       PRES   REMARKS
MONROE         SUNNY     42  32  67 NE10      30.51R
TALLULAH       SUNNY     44  32  62 NE13      30.49R

$$




USA.gov is the U.S. government's official web portal to all federal, state and local government web resources and services.